Time,TemperatureF,DewpointF,PressureIn,WindDirection,WindDirectionDegrees,WindSpeedMPH,WindSpeedGustMPH,Humidity,HourlyPrecipIn,Conditions,Clouds,dailyrainin,SoftwareType,DateUTC
2013-09-12 00:04:00,63.7,58.8,29.95,NW,307,2.3,2.3,84,0.00,CLR,,0.00,WeatherDisplay:10.37,2013-09-12 07:04:00,
2013-09-12 00:09:00,63.7,58.8,29.96,WNW,284,3.5,3.5,84,0.00,CLR,,0.00,WeatherDisplay:10.37,2013-09-12 07:09:00,
2013-09-12 00:14:00,63.6,58.7,29.96,WNW,300,3.5,3.5,84,0.00,CLR,,0.00,WeatherDisplay:10.37,2013-09-12 07:14:00,
2013-09-12 00:19:00,63.7,58.8,29.96,WNW,285,1.0,1.0,84,0.00,CLR,,0.00,WeatherDisplay:10.37,2013-09-12 07:19:00,
2013-09-12 00:24:00,63.7,58.8,29.96,WNW,284,2.0,2.0,84,0.00,CLR,,0.00,WeatherDisplay:10.37,2013-09-12 07:24:00,
2013-09-12 00:29:00,63.7,58.8,29.96,WNW,294,0.0,0.1,84,0.00,CLR,,0.00,WeatherDisplay:10.37,2013-09-12 07:29:00,
2013-09-12 00:34:00,63.7,58.8,29.96,WNW,283,2.3,2.3,84,0.00,CLR,,0.00,WeatherDisplay:10.37,2013-09-12 07:34:00,
2013-09-12 00:39:00,63.7,58.8,29.96,NW,311,3.0,3.0,84,0.00,CLR,,0.00,WeatherDisplay:10.37,2013-09-12 07:39:00,
2013-09-12 00:44:00,63.8,58.9,29.96,West,270,2.3,2.3,84,0.00,CLR,,0.00,WeatherDisplay:10.37,2013-09-12 07:44:00,
2013-09-12 00:49:00,63.8,58.9,29.96,WNW,285,1.2,1.2,84,0.00,CLR,,0.00,WeatherDisplay:10.37,2013-09-12 07:49:00,
2013-09-12 00:54:00,63.8,58.9,29.96,WNW,293,0.0,0.0,84,0.00,CLR,,0.00,WeatherDisplay:10.37,2013-09-12 07:54:00,
2013-09-12 00:59:00,63.8,58.9,29.96,WNW,294,2.3,2.3,84,0.00,CLR,,0.00,WeatherDisplay:10.37,2013-09-12 07:59:00,
2013-09-12 01:04:00,63.8,58.9,29.96,WSW,239,1.2,0.0,84,0.00,CLR,,0.00,WeatherDisplay:10.37,2013-09-12 08:04:00,
2013-09-12 01:09:00,63.8,58.9,29.96,West,267,2.3,2.3,84,0.00,CLR,,0.00,WeatherDisplay:10.37,2013-09-12 08:09:00,
2013-09-12 01:14:00,63.8,58.9,29.96,NW,307,2.3,2.3,84,0.00,CLR,,0.00,WeatherDisplay:10.37,2013-09-12 08:14:00,
2013-09-12 01:19:00,63.7,58.8,29.96,WNW,291,3.5,3.5,84,0.00,CLR,,0.00,WeatherDisplay:10.37,2013-09-12 08:19:00,
2013-09-12 01:24:00,63.7,58.8,29.96,WNW,303,2.3,2.3,84,0.00,CLR,,0.00,WeatherDisplay:10.37,2013-09-12 08:24:00,
2013-09-12 01:29:00,63.7,58.8,29.96,NW,319,4.0,4.0,84,0.00,CLR,,0.00,WeatherDisplay:10.37,2013-09-12 08:29:00,
2013-09-12 01:34:00,63.6,58.7,29.95,WSW,246,3.5,3.5,84,0.00,CLR,,0.00,WeatherDisplay:10.37,2013-09-12 08:34:00,
2013-09-12 01:39:00,63.5,58.9,29.96,WNW,303,3.5,3.5,85,0.00,CLR,,0.00,WeatherDisplay:10.37,2013-09-12 08:39:00,
2013-09-12 01:44:00,63.5,58.9,29.96,West,267,2.3,2.3,85,0.00,CLR,,0.00,WeatherDisplay:10.37,2013-09-12 08:44:00,
2013-09-12 01:49:00,63.5,58.9,29.96,West,276,1.2,1.2,85,0.00,CLR,,0.00,WeatherDisplay:10.37,2013-09-12 08:49:00,
2013-09-12 01:54:00,63.5,58.9,29.96,WNW,290,1.2,0.0,85,0.00,CLR,,0.00,WeatherDisplay:10.37,2013-09-12 08:54:00,
2013-09-12 01:59:00,63.5,58.9,29.95,WSW,239,2.3,2.3,85,0.00,CLR,,0.00,WeatherDisplay:10.37,2013-09-12 08:59:00,
2013-09-12 02:04:00,63.4,58.8,29.95,NW,311,2.3,2.3,85,0.00,CLR,,0.00,WeatherDisplay:10.37,2013-09-12 09:04:00,
2013-09-12 02:09:00,63.4,58.8,29.95,NW,307,1.2,0.0,85,0.00,CLR,,0.00,WeatherDisplay:10.37,2013-09-12 09:09:00,
2013-09-12 02:14:00,63.4,58.8,29.95,SW,217,0.0,0.0,85,0.00,CLR,,0.00,WeatherDisplay:10.37,2013-09-12 09:14:00,
2013-09-12 02:19:00,63.5,58.9,29.95,NW,307,3.5,3.5,85,0.00,CLR,,0.00,WeatherDisplay:10.37,2013-09-12 09:19:00,
2013-09-12 02:24:00,63.4,58.8,29.95,West,259,4.6,4.6,85,0.00,CLR,,0.00,WeatherDisplay:10.37,2013-09-12 09:24:00,
2013-09-12 02:29:00,63.4,58.8,29.95,West,260,2.3,2.3,85,0.00,CLR,,0.00,WeatherDisplay:10.37,2013-09-12 09:29:00,
2013-09-12 02:34:00,63.4,58.8,29.95,SW,236,3.5,3.5,85,0.00,CLR,,0.00,WeatherDisplay:10.37,2013-09-12 09:34:00,
2013-09-12 02:39:00,63.3,58.7,29.95,WSW,246,1.2,0.0,85,0.00,CLR,,0.00,WeatherDisplay:10.37,2013-09-12 09:39:00,
2013-09-12 02:44:00,63.3,58.7,29.95,WSW,250,0.0,0.0,85,0.00,CLR,,0.00,WeatherDisplay:10.37,2013-09-12 09:44:00,
2013-09-12 02:49:00,63.3,58.7,29.95,WNW,300,1.2,1.2,85,0.00,CLR,,0.00,WeatherDisplay:10.37,2013-09-12 09:49:00,
2013-09-12 02:54:00,63.3,58.7,29.95,WNW,299,1.2,0.0,85,0.00,CLR,,0.00,WeatherDisplay:10.37,2013-09-12 09:54:00,
2013-09-12 02:59:00,63.3,58.7,29.95,West,276,1.0,1.0,85,0.00,CLR,,0.00,WeatherDisplay:10.37,2013-09-12 09:59:00,
2013-09-12 03:04:00,63.3,58.7,29.95,NW,310,1.2,1.2,85,0.00,CLR,,0.00,WeatherDisplay:10.37,2013-09-12 10:04:00,
2013-09-12 03:09:00,63.2,58.6,29.95,West,272,1.2,1.2,85,0.00,CLR,,0.00,WeatherDisplay:10.37,2013-09-12 10:09:00,
2013-09-12 03:14:00,63.2,58.6,29.95,WSW,256,3.5,3.5,85,0.00,CLR,,0.00,WeatherDisplay:10.37,2013-09-12 10:14:00,
2013-09-12 03:19:00,63.1,58.5,29.94,SW,233,2.3,2.3,85,0.00,CLR,,0.00,WeatherDisplay:10.37,2013-09-12 10:19:00,
2013-09-12 03:24:00,63.1,58.5,29.95,WSW,248,2.3,2.3,85,0.00,CLR,,0.00,WeatherDisplay:10.37,2013-09-12 10:24:00,
2013-09-12 03:29:00,63.2,58.6,29.95,WSW,245,1.2,1.2,85,0.00,CLR,,0.00,WeatherDisplay:10.37,2013-09-12 10:29:00,
2013-09-12 03:34:00,63.2,58.6,29.95,WSW,246,0.0,0.0,85,0.00,CLR,,0.00,WeatherDisplay:10.37,2013-09-12 10:34:00,
2013-09-12 03:39:00,63.2,58.6,29.94,NW,314,3.5,3.5,85,0.00,CLR,,0.00,WeatherDisplay:10.37,2013-09-12 10:39:00,
2013-09-12 03:44:00,63.2,58.6,29.94,NW,319,3.5,3.5,85,0.00,CLR,,0.00,WeatherDisplay:10.37,2013-09-12 10:44:00,
2013-09-12 03:49:00,63.2,58.6,29.94,NW,316,0.0,0.0,85,0.00,CLR,,0.00,WeatherDisplay:10.37,2013-09-12 10:49:00,
2013-09-12 03:54:00,63.2,58.6,29.94,SW,225,1.2,1.2,85,0.00,CLR,,0.00,WeatherDisplay:10.37,2013-09-12 10:54:00,
2013-09-12 03:59:00,63.2,58.6,29.94,SW,225,0.0,0.0,85,0.00,CLR,,0.00,WeatherDisplay:10.37,2013-09-12 10:59:00,
2013-09-12 04:04:00,63.3,58.7,29.94,WSW,240,1.2,1.2,85,0.00,CLR,,0.00,WeatherDisplay:10.37,2013-09-12 11:04:00,
2013-09-12 04:09:00,63.3,58.7,29.94,WSW,240,0.0,0.0,85,0.00,CLR,,0.00,WeatherDisplay:10.37,2013-09-12 11:09:00,
2013-09-12 04:14:00,63.3,58.7,29.94,North,4,2.3,2.3,85,0.00,CLR,,0.00,WeatherDisplay:10.37,2013-09-12 11:14:00,
2013-09-12 04:19:00,63.3,58.7,29.94,NW,316,3.5,3.5,85,0.00,CLR,,0.00,WeatherDisplay:10.37,2013-09-12 11:19:00,
2013-09-12 04:24:00,63.2,58.6,29.94,NNW,327,2.3,2.3,85,0.00,CLR,,0.00,WeatherDisplay:10.37,2013-09-12 11:24:00,
2013-09-12 04:29:00,63.2,58.6,29.94,NNW,328,1.2,1.2,85,0.00,CLR,,0.00,WeatherDisplay:10.37,2013-09-12 11:29:00,
2013-09-12 04:34:00,63.1,58.5,29.94,NNW,327,0.0,0.0,85,0.00,CLR,,0.00,WeatherDisplay:10.37,2013-09-12 11:34:00,
2013-09-12 04:39:00,63.1,58.8,29.94,NW,325,2.3,2.3,86,0.00,CLR,,0.00,WeatherDisplay:10.37,2013-09-12 11:39:00,
2013-09-12 04:44:00,63.2,58.9,29.94,NNW,331,1.2,0.0,86,0.00,CLR,,0.00,WeatherDisplay:10.37,2013-09-12 11:44:00,
2013-09-12 04:49:00,63.1,58.5,29.94,SW,219,1.2,1.2,85,0.00,CLR,,0.00,WeatherDisplay:10.37,2013-09-12 11:49:00,
2013-09-12 04:54:00,63.1,58.5,29.94,WNW,291,2.0,2.0,85,0.00,CLR,,0.00,WeatherDisplay:10.37,2013-09-12 11:54:00,
2013-09-12 04:59:00,63.1,58.8,29.94,WNW,300,3.5,3.5,86,0.00,CLR,,0.00,WeatherDisplay:10.37,2013-09-12 11:59:00,
2013-09-12 05:04:00,62.9,58.6,29.94,NE,53,3.5,3.5,86,0.00,CLR,,0.00,WeatherDisplay:10.37,2013-09-12 12:04:00,
2013-09-12 05:09:00,62.8,58.5,29.95,NE,40,2.3,2.3,86,0.00,CLR,,0.00,WeatherDisplay:10.37,2013-09-12 12:09:00,
2013-09-12 05:14:00,62.8,58.5,29.94,North,9,2.0,2.0,86,0.00,CLR,,0.00,WeatherDisplay:10.37,2013-09-12 12:14:00,
2013-09-12 05:19:00,62.8,58.5,29.94,NE,54,3.5,3.5,86,0.00,CLR,,0.00,WeatherDisplay:10.37,2013-09-12 12:19:00,
2013-09-12 05:24:00,62.8,58.5,29.94,ENE,67,2.3,2.3,86,0.00,CLR,,0.00,WeatherDisplay:10.37,2013-09-12 12:24:00,
2013-09-12 05:29:00,62.8,58.5,29.94,North,351,1.0,1.0,86,0.00,CLR,,0.00,WeatherDisplay:10.37,2013-09-12 12:29:00,
2013-09-12 05:34:00,62.8,58.5,29.94,NW,309,2.3,2.3,86,0.00,CLR,,0.00,WeatherDisplay:10.37,2013-09-12 12:34:00,
2013-09-12 05:39:00,62.9,58.6,29.94,NW,309,1.2,0.0,86,0.00,CLR,,0.00,WeatherDisplay:10.37,2013-09-12 12:39:00,
2013-09-12 05:44:00,62.9,58.6,29.95,West,260,1.2,1.2,86,0.00,CLR,,0.00,WeatherDisplay:10.37,2013-09-12 12:44:00,
2013-09-12 05:49:00,62.9,58.6,29.94,West,274,1.2,1.2,86,0.00,CLR,,0.00,WeatherDisplay:10.37,2013-09-12 12:49:00,
2013-09-12 05:54:00,62.9,58.6,29.95,West,274,0.0,0.0,86,0.00,CLR,,0.00,WeatherDisplay:10.37,2013-09-12 12:54:00,
2013-09-12 05:59:00,62.9,58.6,29.95,West,274,0.0,0.0,86,0.00,CLR,,0.00,WeatherDisplay:10.37,2013-09-12 12:59:00,
2013-09-12 06:04:00,62.9,58.6,29.95,WSW,249,2.3,2.3,86,0.00,CLR,,0.00,WeatherDisplay:10.37,2013-09-12 13:04:00,
2013-09-12 06:09:00,62.9,58.6,29.95,WSW,244,1.2,1.2,86,0.00,CLR,,0.00,WeatherDisplay:10.37,2013-09-12 13:09:00,
2013-09-12 06:14:00,62.8,58.5,29.95,WSW,250,2.3,2.3,86,0.00,CLR,,0.00,WeatherDisplay:10.37,2013-09-12 13:14:00,
2013-09-12 06:19:00,62.8,58.5,29.95,NE,34,3.5,3.5,86,0.00,CLR,,0.00,WeatherDisplay:10.37,2013-09-12 13:19:00,
2013-09-12 06:24:00,62.7,58.5,29.95,NE,56,2.3,2.3,86,0.00,CLR,,0.00,WeatherDisplay:10.37,2013-09-12 13:24:00,
2013-09-12 06:29:00,62.6,58.4,29.95,ENE,67,3.5,3.5,86,0.00,CLR,,0.00,WeatherDisplay:10.37,2013-09-12 13:29:00,
2013-09-12 06:34:00,62.6,58.4,29.95,ENE,78,2.3,2.3,86,0.00,CLR,,0.00,WeatherDisplay:10.37,2013-09-12 13:34:00,
2013-09-12 06:39:00,62.6,58.4,29.95,ENE,60,1.2,1.2,86,0.00,CLR,,0.00,WeatherDisplay:10.37,2013-09-12 13:39:00,
2013-09-12 06:44:00,62.6,58.4,29.95,WNW,298,1.2,0.0,86,0.00,CLR,,0.00,WeatherDisplay:10.37,2013-09-12 13:44:00,
2013-09-12 06:49:00,62.6,58.4,29.95,WNW,298,1.0,1.0,86,0.00,CLR,,0.00,WeatherDisplay:10.37,2013-09-12 13:49:00,
2013-09-12 06:54:00,62.5,58.3,29.95,NNW,334,0.0,0.0,86,0.00,CLR,,0.00,WeatherDisplay:10.37,2013-09-12 13:54:00,
2013-09-12 06:59:00,62.6,58.7,29.95,SW,226,2.3,2.3,87,0.00,CLR,,0.00,WeatherDisplay:10.37,2013-09-12 13:59:00,
2013-09-12 07:04:00,62.6,58.4,29.95,SW,231,3.5,3.5,86,0.00,CLR,,0.00,WeatherDisplay:10.37,2013-09-12 14:04:00,
2013-09-12 07:09:00,62.6,58.4,29.96,SW,233,3.5,3.5,86,0.00,CLR,,0.00,WeatherDisplay:10.37,2013-09-12 14:09:00,
2013-09-12 07:14:00,62.6,58.4,29.96,SW,236,2.3,2.3,86,0.00,CLR,,0.00,WeatherDisplay:10.37,2013-09-12 14:14:00,
2013-09-12 07:19:00,62.6,58.4,29.96,WSW,257,2.3,2.3,86,0.00,CLR,,0.00,WeatherDisplay:10.37,2013-09-12 14:19:00,
2013-09-12 07:24:00,62.6,58.4,29.96,WSW,243,2.3,2.3,86,0.00,CLR,,0.00,WeatherDisplay:10.37,2013-09-12 14:24:00,
2013-09-12 07:29:00,62.7,58.5,29.96,NW,305,1.2,1.2,86,0.00,CLR,,0.00,WeatherDisplay:10.37,2013-09-12 14:29:00,
2013-09-12 07:34:00,62.7,58.5,29.97,North,4,2.3,2.3,86,0.00,CLR,,0.00,WeatherDisplay:10.37,2013-09-12 14:34:00,
2013-09-12 07:39:00,62.7,58.5,29.97,North,4,0.0,0.0,86,0.00,CLR,,0.00,WeatherDisplay:10.37,2013-09-12 14:39:00,
2013-09-12 07:44:00,62.7,58.5,29.97,North,4,1.2,1.2,86,0.00,CLR,,0.00,WeatherDisplay:10.37,2013-09-12 14:44:00,
2013-09-12 07:49:00,62.8,58.5,29.97,NW,326,3.5,3.5,86,0.00,CLR,,0.00,WeatherDisplay:10.37,2013-09-12 14:49:00,
2013-09-12 07:54:00,62.8,58.5,29.97,NW,319,2.3,2.3,86,0.00,CLR,,0.00,WeatherDisplay:10.37,2013-09-12 14:54:00,
2013-09-12 07:59:00,62.9,58.6,29.97,NW,323,2.3,2.6,86,0.00,CLR,,0.00,WeatherDisplay:10.37,2013-09-12 14:59:00,
2013-09-12 08:04:00,62.8,58.9,29.97,NNW,344,2.3,2.3,87,0.00,CLR,,0.00,WeatherDisplay:10.37,2013-09-12 15:04:00,
2013-09-12 08:09:00,62.8,58.9,29.97,East,79,1.2,1.2,87,0.00,CLR,,0.00,WeatherDisplay:10.37,2013-09-12 15:09:00,
2013-09-12 08:14:00,62.8,58.9,29.97,NNW,336,3.0,3.0,87,0.00,CLR,,0.00,WeatherDisplay:10.37,2013-09-12 15:14:00,
2013-09-12 08:19:00,62.8,58.9,29.97,North,349,3.5,3.5,87,0.00,CLR,,0.00,WeatherDisplay:10.37,2013-09-12 15:19:00,
2013-09-12 08:24:00,62.8,58.9,29.97,NW,314,3.5,3.5,87,0.00,CLR,,0.00,WeatherDisplay:10.37,2013-09-12 15:24:00,
2013-09-12 08:29:00,62.8,58.9,29.98,NW,316,1.2,1.2,87,0.00,CLR,,0.00,WeatherDisplay:10.37,2013-09-12 15:29:00,
2013-09-12 08:34:00,62.8,58.5,29.98,NNE,19,3.5,3.5,86,0.00,CLR,,0.00,WeatherDisplay:10.37,2013-09-12 15:34:00,
2013-09-12 08:39:00,62.8,58.5,29.98,NE,36,2.3,2.3,86,0.00,CLR,,0.00,WeatherDisplay:10.37,2013-09-12 15:39:00,
2013-09-12 08:44:00,62.8,58.9,29.98,NNE,15,4.0,4.0,87,0.00,CLR,,0.00,WeatherDisplay:10.37,2013-09-12 15:44:00,
2013-09-12 08:49:00,62.8,58.5,29.98,East,83,2.0,2.0,86,0.00,CLR,,0.00,WeatherDisplay:10.37,2013-09-12 15:49:00,
2013-09-12 08:54:00,63.0,58.7,29.98,East,98,3.5,3.5,86,0.00,CLR,,0.00,WeatherDisplay:10.37,2013-09-12 15:54:00,
2013-09-12 08:59:00,63.3,59.0,29.97,East,98,0.0,0.1,86,0.00,CLR,,0.00,WeatherDisplay:10.37,2013-09-12 15:59:00,
2013-09-12 09:04:00,63.7,59.4,29.97,East,98,0.0,0.0,86,0.00,CLR,,0.00,WeatherDisplay:10.37,2013-09-12 16:04:00,
2013-09-12 09:09:00,64.2,59.3,29.97,NNE,32,3.5,3.5,84,0.00,CLR,,0.00,WeatherDisplay:10.37,2013-09-12 16:09:00,
2013-09-12 09:14:00,64.2,59.3,29.97,NNE,32,4.0,4.0,84,0.00,CLR,,0.00,WeatherDisplay:10.37,2013-09-12 16:14:00,
2013-09-12 09:19:00,64.2,59.6,29.97,NE,50,2.3,2.3,85,0.00,CLR,,0.00,WeatherDisplay:10.37,2013-09-12 16:19:00,
2013-09-12 09:24:00,64.5,59.6,29.97,ENE,68,3.5,3.5,84,0.00,CLR,,0.00,WeatherDisplay:10.37,2013-09-12 16:24:00,
2013-09-12 09:29:00,64.6,59.7,29.97,SE,129,1.2,1.2,84,0.00,CLR,,0.00,WeatherDisplay:10.37,2013-09-12 16:29:00,
2013-09-12 09:34:00,65.2,59.9,29.97,SSE,162,3.0,3.0,83,0.00,CLR,,0.00,WeatherDisplay:10.37,2013-09-12 16:34:00,
2013-09-12 09:39:00,65.4,59.8,29.97,SSE,159,2.3,2.3,82,0.00,CLR,,0.00,WeatherDisplay:10.37,2013-09-12 16:39:00,
2013-09-12 09:44:00,65.7,59.7,29.98,NE,49,2.0,2.0,81,0.00,CLR,,0.00,WeatherDisplay:10.37,2013-09-12 16:44:00,
2013-09-12 09:49:00,65.7,59.7,29.98,NNW,333,0.0,0.2,81,0.00,CLR,,0.00,WeatherDisplay:10.37,2013-09-12 16:49:00,
2013-09-12 09:54:00,65.9,60.2,29.98,NNW,338,1.2,1.2,82,0.00,CLR,,0.00,WeatherDisplay:10.37,2013-09-12 16:54:00,
2013-09-12 09:59:00,66.0,60.0,29.97,East,94,2.3,2.3,81,0.00,CLR,,0.00,WeatherDisplay:10.37,2013-09-12 16:59:00,
2013-09-12 10:04:00,66.1,60.1,29.97,SE,141,3.5,3.5,81,0.00,CLR,,0.00,WeatherDisplay:10.37,2013-09-12 17:04:00,
2013-09-12 10:09:00,66.5,60.5,29.97,SE,146,2.3,2.3,81,0.00,CLR,,0.00,WeatherDisplay:10.37,2013-09-12 17:09:00,
2013-09-12 10:14:00,67.1,60.4,29.97,SW,215,2.3,2.3,79,0.00,CLR,,0.00,WeatherDisplay:10.37,2013-09-12 17:14:00,
2013-09-12 10:19:00,67.3,60.6,29.97,ESE,118,2.3,2.3,79,0.00,CLR,,0.00,WeatherDisplay:10.37,2013-09-12 17:19:00,
2013-09-12 10:24:00,67.4,60.7,29.97,NNE,15,3.5,3.5,79,0.00,CLR,,0.00,WeatherDisplay:10.37,2013-09-12 17:24:00,
2013-09-12 10:29:00,67.3,60.9,29.97,NE,47,3.5,3.5,80,0.00,CLR,,0.00,WeatherDisplay:10.37,2013-09-12 17:29:00,
2013-09-12 10:34:00,67.9,61.1,29.97,ESE,115,2.3,2.3,79,0.00,CLR,,0.00,WeatherDisplay:10.37,2013-09-12 17:34:00,
2013-09-12 10:39:00,68.1,61.0,29.97,SE,126,2.3,2.3,78,0.00,CLR,,0.00,WeatherDisplay:10.37,2013-09-12 17:39:00,
2013-09-12 10:44:00,68.2,61.1,29.97,ENE,72,3.5,3.5,78,0.00,CLR,,0.00,WeatherDisplay:10.37,2013-09-12 17:44:00,
2013-09-12 10:49:00,68.5,61.0,29.97,West,259,3.5,3.5,77,0.00,CLR,,0.00,WeatherDisplay:10.37,2013-09-12 17:49:00,
2013-09-12 10:54:00,69.1,61.2,29.97,SE,128,2.3,2.3,76,0.00,CLR,,0.00,WeatherDisplay:10.37,2013-09-12 17:54:00,
2013-09-12 10:59:00,69.7,61.4,29.96,SW,219,4.6,4.6,75,0.00,CLR,,0.00,WeatherDisplay:10.37,2013-09-12 17:59:00,
2013-09-12 11:04:00,70.3,61.6,29.96,SE,129,3.5,3.5,74,0.00,CLR,,0.00,WeatherDisplay:10.37,2013-09-12 18:04:00,
2013-09-12 11:09:00,70.9,61.8,29.96,SSE,166,3.5,3.5,73,0.00,CLR,,0.00,WeatherDisplay:10.37,2013-09-12 18:09:00,
2013-09-12 11:14:00,71.2,61.7,29.96,SE,131,2.3,2.3,72,0.00,CLR,,0.00,WeatherDisplay:10.37,2013-09-12 18:14:00,
2013-09-12 11:19:00,71.2,61.7,29.96,SW,229,3.5,3.5,72,0.00,CLR,,0.00,WeatherDisplay:10.37,2013-09-12 18:19:00,
2013-09-12 11:24:00,71.6,61.7,29.95,South,187,5.0,5.0,71,0.00,CLR,,0.00,WeatherDisplay:10.37,2013-09-12 18:24:00,
2013-09-12 11:29:00,72.2,61.9,29.95,SW,235,2.3,2.3,70,0.00,CLR,,0.00,WeatherDisplay:10.37,2013-09-12 18:29:00,
2013-09-12 11:34:00,73.3,62.1,29.95,WSW,238,4.6,4.6,68,0.00,CLR,,0.00,WeatherDisplay:10.37,2013-09-12 18:34:00,
2013-09-12 11:39:00,73.7,62.1,29.95,South,183,3.5,3.5,67,0.00,CLR,,0.00,WeatherDisplay:10.37,2013-09-12 18:39:00,
2013-09-12 11:44:00,74.5,62.4,29.96,SSW,211,4.6,4.6,66,0.00,CLR,,0.00,WeatherDisplay:10.37,2013-09-12 18:44:00,
2013-09-12 11:49:00,74.6,62.5,29.95,SSE,165,4.0,4.0,66,0.00,CLR,,0.00,WeatherDisplay:10.37,2013-09-12 18:49:00,
2013-09-12 11:54:00,74.7,62.1,29.95,SSW,200,4.6,4.6,65,0.00,CLR,,0.00,WeatherDisplay:10.37,2013-09-12 18:54:00,
2013-09-12 11:59:00,74.6,62.1,29.95,South,176,3.5,3.5,65,0.00,CLR,,0.00,WeatherDisplay:10.37,2013-09-12 18:59:00,
2013-09-12 12:04:00,75.1,62.5,29.95,SE,124,5.8,5.8,65,0.00,CLR,,0.00,WeatherDisplay:10.37,2013-09-12 19:04:00,
2013-09-12 12:09:00,75.4,62.8,29.95,South,176,3.0,3.0,65,0.00,CLR,,0.00,WeatherDisplay:10.37,2013-09-12 19:09:00,
2013-09-12 12:14:00,75.5,62.5,29.94,SSE,160,4.6,4.6,64,0.00,CLR,,0.00,WeatherDisplay:10.37,2013-09-12 19:14:00,
2013-09-12 12:19:00,76.2,62.2,29.94,SSE,167,4.6,4.6,62,0.00,CLR,,0.00,WeatherDisplay:10.37,2013-09-12 19:19:00,
2013-09-12 12:24:00,76.7,62.7,29.94,SSE,149,2.3,2.3,62,0.00,CLR,,0.00,WeatherDisplay:10.37,2013-09-12 19:24:00,
2013-09-12 12:29:00,76.6,62.6,29.94,SE,134,4.6,4.6,62,0.00,CLR,,0.00,WeatherDisplay:10.37,2013-09-12 19:29:00,
2013-09-12 12:34:00,76.9,62.9,29.94,ESE,112,5.0,5.0,62,0.00,CLR,,0.00,WeatherDisplay:10.37,2013-09-12 19:34:00,
2013-09-12 12:39:00,77.4,63.4,29.93,SE,132,4.6,4.6,62,0.00,CLR,,0.00,WeatherDisplay:10.37,2013-09-12 19:39:00,
2013-09-12 12:44:00,78.0,63.0,29.93,East,95,3.5,3.5,60,0.00,CLR,,0.00,WeatherDisplay:10.37,2013-09-12 19:44:00,
2013-09-12 12:49:00,77.9,62.9,29.93,South,175,6.9,6.9,60,0.00,CLR,,0.00,WeatherDisplay:10.37,2013-09-12 19:49:00,
2013-09-12 12:54:00,78.1,63.1,29.93,SSE,155,3.5,3.5,60,0.00,CLR,,0.00,WeatherDisplay:10.37,2013-09-12 19:54:00,
2013-09-12 12:59:00,78.1,63.1,29.92,ESE,105,3.0,3.0,60,0.00,CLR,,0.00,WeatherDisplay:10.37,2013-09-12 19:59:00,
2013-09-12 13:04:00,78.3,62.8,29.92,ESE,122,3.5,3.5,59,0.00,CLR,,0.00,WeatherDisplay:10.37,2013-09-12 20:04:00,
2013-09-12 13:09:00,78.4,62.9,29.92,ESE,120,3.5,3.5,59,0.00,CLR,,0.00,WeatherDisplay:10.37,2013-09-12 20:09:00,
2013-09-12 13:14:00,78.6,63.1,29.92,SSE,147,3.5,3.5,59,0.00,CLR,,0.00,WeatherDisplay:10.37,2013-09-12 20:14:00,
2013-09-12 13:19:00,79.0,63.0,29.92,SE,145,4.0,4.0,58,0.00,CLR,,0.00,WeatherDisplay:10.37,2013-09-12 20:19:00,
2013-09-12 13:24:00,79.3,63.2,29.92,SSE,156,6.0,6.0,58,0.00,CLR,,0.00,WeatherDisplay:10.37,2013-09-12 20:24:00,
2013-09-12 13:29:00,79.9,63.8,29.91,SE,143,4.6,4.6,58,0.00,CLR,,0.00,WeatherDisplay:10.37,2013-09-12 20:29:00,
2013-09-12 13:34:00,80.1,63.5,29.91,SE,124,5.8,5.8,57,0.00,CLR,,0.00,WeatherDisplay:10.37,2013-09-12 20:34:00,
2013-09-12 13:39:00,80.7,63.5,29.91,SE,128,3.5,4.9,56,0.00,CLR,,0.00,WeatherDisplay:10.37,2013-09-12 20:39:00,
2013-09-12 13:44:00,80.9,63.2,29.91,ESE,103,3.5,3.5,55,0.00,CLR,,0.00,WeatherDisplay:10.37,2013-09-12 20:44:00,
2013-09-12 13:49:00,81.2,64.0,29.90,ESE,118,3.5,3.5,56,0.00,CLR,,0.00,WeatherDisplay:10.37,2013-09-12 20:49:00,
2013-09-12 13:54:00,81.6,63.9,29.90,ESE,120,3.5,3.5,55,0.00,CLR,,0.00,WeatherDisplay:10.37,2013-09-12 20:54:00,
2013-09-12 13:59:00,81.3,63.6,29.90,SSE,160,5.0,5.0,55,0.00,CLR,,0.00,WeatherDisplay:10.37,2013-09-12 20:59:00,
2013-09-12 14:04:00,81.9,63.6,29.89,ESE,122,3.5,3.5,54,0.00,CLR,,0.00,WeatherDisplay:10.37,2013-09-12 21:04:00,
2013-09-12 14:09:00,82.5,63.6,29.89,SSE,159,10.4,10.4,53,0.00,CLR,,0.00,WeatherDisplay:10.37,2013-09-12 21:09:00,
2013-09-12 14:14:00,82.6,63.7,29.89,SE,138,4.0,4.0,53,0.00,CLR,,0.00,WeatherDisplay:10.37,2013-09-12 21:14:00,
2013-09-12 14:19:00,82.8,63.9,29.89,SE,131,10.4,10.4,53,0.00,CLR,,0.00,WeatherDisplay:10.37,2013-09-12 21:19:00,
2013-09-12 14:24:00,82.5,64.2,29.89,SE,125,5.8,5.8,54,0.00,CLR,,0.00,WeatherDisplay:10.37,2013-09-12 21:24:00,
2013-09-12 14:29:00,82.5,64.2,29.88,ESE,106,3.5,3.5,54,0.00,CLR,,0.00,WeatherDisplay:10.37,2013-09-12 21:29:00,
2013-09-12 14:34:00,82.9,64.0,29.88,SE,139,10.4,10.4,53,0.00,CLR,,0.00,WeatherDisplay:10.37,2013-09-12 21:34:00,
2013-09-12 14:39:00,82.8,63.9,29.88,ESE,117,5.0,5.0,53,0.00,CLR,,0.00,WeatherDisplay:10.37,2013-09-12 21:39:00,
2013-09-12 14:44:00,82.7,64.4,29.88,SSE,148,3.5,3.5,54,0.00,CLR,,0.00,WeatherDisplay:10.37,2013-09-12 21:44:00,
2013-09-12 14:49:00,83.0,64.6,29.87,ESE,114,5.0,5.0,54,0.00,CLR,,0.00,WeatherDisplay:10.37,2013-09-12 21:49:00,
2013-09-12 14:54:00,83.3,64.4,29.87,ESE,118,5.8,5.8,53,0.00,CLR,,0.00,WeatherDisplay:10.37,2013-09-12 21:54:00,
2013-09-12 14:59:00,83.3,64.4,29.87,SSE,150,4.0,4.0,53,0.00,CLR,,0.00,WeatherDisplay:10.37,2013-09-12 21:59:00,
2013-09-12 15:04:00,83.4,63.9,29.87,SSE,153,10.4,10.4,52,0.00,CLR,,0.00,WeatherDisplay:10.37,2013-09-12 22:04:00,
2013-09-12 15:09:00,83.6,64.7,29.87,SSE,154,4.6,4.6,53,0.00,CLR,,0.00,WeatherDisplay:10.37,2013-09-12 22:09:00,
2013-09-12 15:14:00,83.3,64.4,29.87,SE,146,4.0,4.0,53,0.00,CLR,,0.00,WeatherDisplay:10.37,2013-09-12 22:14:00,
2013-09-12 15:19:00,83.4,64.5,29.87,SSE,156,3.5,3.5,53,0.00,CLR,,0.00,WeatherDisplay:10.37,2013-09-12 22:19:00,
2013-09-12 15:24:00,83.5,64.0,29.87,SE,129,6.9,6.9,52,0.00,CLR,,0.00,WeatherDisplay:10.37,2013-09-12 22:24:00,
2013-09-12 15:29:00,83.5,64.0,29.86,South,179,9.0,9.0,52,0.00,CLR,,0.00,WeatherDisplay:10.37,2013-09-12 22:29:00,
2013-09-12 15:34:00,83.6,64.1,29.86,SSE,155,4.6,4.6,52,0.00,CLR,,0.00,WeatherDisplay:10.37,2013-09-12 22:34:00,
2013-09-12 15:39:00,83.9,64.4,29.86,SSE,160,4.0,4.0,52,0.00,CLR,,0.00,WeatherDisplay:10.37,2013-09-12 22:39:00,
2013-09-12 15:44:00,84.2,64.1,29.86,SE,133,8.1,8.1,51,0.00,CLR,,0.00,WeatherDisplay:10.37,2013-09-12 22:44:00,
2013-09-12 15:49:00,84.2,64.7,29.86,ESE,122,6.9,6.9,52,0.00,CLR,,0.00,WeatherDisplay:10.37,2013-09-12 22:49:00,
2013-09-12 15:54:00,84.1,64.6,29.86,SSE,155,8.1,8.1,52,0.00,CLR,,0.00,WeatherDisplay:10.37,2013-09-12 22:54:00,
2013-09-12 15:59:00,84.2,64.7,29.85,SE,135,10.4,10.4,52,0.00,CLR,,0.00,WeatherDisplay:10.37,2013-09-12 22:59:00,
2013-09-12 16:04:00,84.5,64.9,29.85,ESE,122,6.9,6.9,52,0.00,CLR,,0.00,WeatherDisplay:10.37,2013-09-12 23:04:00,
2013-09-12 16:09:00,84.3,64.2,29.85,SE,134,4.6,4.6,51,0.00,CLR,,0.00,WeatherDisplay:10.37,2013-09-12 23:09:00,
2013-09-12 16:14:00,84.2,64.1,29.85,ESE,108,5.0,5.0,51,0.00,CLR,,0.00,WeatherDisplay:10.37,2013-09-12 23:14:00,
2013-09-12 16:19:00,84.5,63.8,29.85,East,99,6.0,6.0,50,0.00,CLR,,0.00,WeatherDisplay:10.37,2013-09-12 23:19:00,
2013-09-12 16:24:00,84.2,63.5,29.84,ESE,103,9.2,9.2,50,0.00,CLR,,0.00,WeatherDisplay:10.37,2013-09-12 23:24:00,
2013-09-12 16:29:00,84.2,63.0,29.84,SSE,155,6.9,6.9,49,0.00,CLR,,0.00,WeatherDisplay:10.37,2013-09-12 23:29:00,
2013-09-12 16:34:00,84.1,62.9,29.84,ESE,122,6.9,6.9,49,0.00,CLR,,0.00,WeatherDisplay:10.37,2013-09-12 23:34:00,
2013-09-12 16:39:00,83.8,62.6,29.84,SSE,166,6.9,6.9,49,0.00,CLR,,0.00,WeatherDisplay:10.37,2013-09-12 23:39:00,
2013-09-12 16:44:00,83.5,62.9,29.84,SSE,167,7.0,7.0,50,0.00,CLR,,0.00,WeatherDisplay:10.37,2013-09-12 23:44:00,
2013-09-12 16:49:00,83.2,62.6,29.84,ESE,121,4.0,4.0,50,0.00,CLR,,0.00,WeatherDisplay:10.37,2013-09-12 23:49:00,
2013-09-12 16:54:00,83.1,62.5,29.84,SSE,150,5.8,5.8,50,0.00,CLR,,0.00,WeatherDisplay:10.37,2013-09-12 23:54:00,
2013-09-12 16:59:00,83.0,62.4,29.84,SW,219,9.2,9.2,50,0.00,CLR,,0.00,WeatherDisplay:10.37,2013-09-12 23:59:00,
2013-09-12 17:04:00,82.6,62.1,29.83,SSE,158,5.8,5.8,50,0.00,CLR,,0.00,WeatherDisplay:10.37,2013-09-13 00:04:00,
2013-09-12 17:09:00,82.5,62.5,29.83,SSW,192,4.0,4.2,51,0.00,CLR,,0.00,WeatherDisplay:10.37,2013-09-13 00:09:00,
2013-09-12 17:14:00,82.2,62.3,29.83,SSE,152,5.8,5.8,51,0.00,CLR,,0.00,WeatherDisplay:10.37,2013-09-13 00:14:00,
2013-09-12 17:19:00,81.8,61.9,29.83,South,183,10.4,10.4,51,0.00,CLR,,0.00,WeatherDisplay:10.37,2013-09-13 00:19:00,
2013-09-12 17:24:00,81.6,62.3,29.83,SSE,150,11.5,11.5,52,0.00,CLR,,0.00,WeatherDisplay:10.37,2013-09-13 00:24:00,
2013-09-12 17:29:00,81.5,62.2,29.83,ESE,122,6.9,6.9,52,0.00,CLR,,0.00,WeatherDisplay:10.37,2013-09-13 00:29:00,
2013-09-12 17:34:00,81.2,61.9,29.83,SSE,155,9.0,9.0,52,0.00,CLR,,0.00,WeatherDisplay:10.37,2013-09-13 00:34:00,
2013-09-12 17:39:00,80.7,61.4,29.83,South,176,6.0,6.0,52,0.00,CLR,,0.00,WeatherDisplay:10.37,2013-09-13 00:39:00,
2013-09-12 17:44:00,80.4,61.7,29.83,SSW,198,3.5,3.5,53,0.00,CLR,,0.00,WeatherDisplay:10.37,2013-09-13 00:44:00,
2013-09-12 17:49:00,80.3,61.6,29.84,SSE,155,8.1,8.1,53,0.00,CLR,,0.00,WeatherDisplay:10.37,2013-09-13 00:49:00,
2013-09-12 17:54:00,79.9,61.2,29.84,SSE,157,10.4,10.4,53,0.00,CLR,,0.00,WeatherDisplay:10.37,2013-09-13 00:54:00,
2013-09-12 17:59:00,79.4,60.8,29.84,ESE,118,9.2,9.2,53,0.00,CLR,,0.00,WeatherDisplay:10.37,2013-09-13 00:59:00,
2013-09-12 18:04:00,79.0,60.9,29.84,SSE,155,6.9,6.9,54,0.00,CLR,,0.00,WeatherDisplay:10.37,2013-09-13 01:04:00,
2013-09-12 18:09:00,78.6,60.6,29.84,South,176,8.0,8.0,54,0.00,CLR,,0.00,WeatherDisplay:10.37,2013-09-13 01:09:00,
2013-09-12 18:14:00,78.1,60.6,29.84,SE,135,5.0,5.0,55,0.00,CLR,,0.00,WeatherDisplay:10.37,2013-09-13 01:14:00,
2013-09-12 18:19:00,77.7,60.2,29.84,SE,139,4.6,4.6,55,0.00,CLR,,0.00,WeatherDisplay:10.37,2013-09-13 01:19:00,
2013-09-12 18:24:00,77.1,60.2,29.84,SSE,163,9.2,9.2,56,0.00,CLR,,0.00,WeatherDisplay:10.37,2013-09-13 01:24:00,
2013-09-12 18:29:00,76.6,60.2,29.84,SSW,205,9.2,9.2,57,0.00,CLR,,0.00,WeatherDisplay:10.37,2013-09-13 01:29:00,
2013-09-12 18:34:00,76.0,60.2,29.84,SSE,159,9.2,9.2,58,0.00,CLR,,0.00,WeatherDisplay:10.37,2013-09-13 01:34:00,
2013-09-12 18:39:00,75.6,60.3,29.84,SE,140,11.5,11.5,59,0.00,CLR,,0.00,WeatherDisplay:10.37,2013-09-13 01:39:00,
2013-09-12 18:44:00,75.1,59.8,29.84,ESE,115,4.6,4.6,59,0.00,CLR,,0.00,WeatherDisplay:10.37,2013-09-13 01:44:00,
2013-09-12 18:49:00,74.7,59.9,29.84,SSW,200,8.1,8.1,60,0.00,CLR,,0.00,WeatherDisplay:10.37,2013-09-13 01:49:00,
2013-09-12 18:54:00,74.4,59.6,29.84,South,186,3.5,5.8,60,0.00,CLR,,0.00,WeatherDisplay:10.37,2013-09-13 01:54:00,
2013-09-12 18:59:00,73.8,59.5,29.85,SW,218,9.2,9.2,61,0.00,CLR,,0.00,WeatherDisplay:10.37,2013-09-13 01:59:00,
2013-09-12 19:04:00,73.1,59.3,29.85,SSW,193,11.5,11.5,62,0.00,CLR,,0.00,WeatherDisplay:10.37,2013-09-13 02:04:00,
2013-09-12 19:09:00,72.4,59.1,29.85,South,185,9.2,9.2,63,0.00,CLR,,0.00,WeatherDisplay:10.37,2013-09-13 02:09:00,
2013-09-12 19:14:00,71.8,59.0,29.85,SSE,160,9.2,9.2,64,0.00,CLR,,0.00,WeatherDisplay:10.37,2013-09-13 02:14:00,
2013-09-12 19:19:00,71.2,58.8,29.85,South,176,8.1,8.1,65,0.00,CLR,,0.00,WeatherDisplay:10.37,2013-09-13 02:19:00,
2013-09-12 19:24:00,70.7,59.2,29.85,SE,135,6.9,6.9,67,0.00,CLR,,0.00,WeatherDisplay:10.37,2013-09-13 02:24:00,
2013-09-12 19:29:00,70.1,59.0,29.85,SE,142,8.0,8.0,68,0.00,CLR,,0.00,WeatherDisplay:10.37,2013-09-13 02:29:00,
2013-09-12 19:34:00,69.6,59.0,29.85,SSE,149,9.2,9.2,69,0.00,CLR,,0.00,WeatherDisplay:10.37,2013-09-13 02:34:00,
2013-09-12 19:39:00,69.0,58.8,29.85,SE,129,8.1,8.1,70,0.00,CLR,,0.00,WeatherDisplay:10.37,2013-09-13 02:39:00,
2013-09-12 19:44:00,68.4,58.6,29.86,SE,140,9.2,9.2,71,0.00,CLR,,0.00,WeatherDisplay:10.37,2013-09-13 02:44:00,
2013-09-12 19:49:00,67.8,58.4,29.86,SSE,158,9.2,9.2,72,0.00,CLR,,0.00,WeatherDisplay:10.37,2013-09-13 02:49:00,
2013-09-12 19:54:00,67.1,58.2,29.86,SSW,200,8.1,8.1,73,0.00,CLR,,0.00,WeatherDisplay:10.37,2013-09-13 02:54:00,
2013-09-12 20:00:00,66.6,58.1,29.86,SSE,166,9.2,9.2,74,0.00,CLR,,0.00,WeatherDisplay:10.37,2013-09-13 03:00:00,
2013-09-12 20:05:00,66.0,57.8,29.86,SE,143,9.2,9.2,75,0.00,CLR,,0.00,WeatherDisplay:10.37,2013-09-13 03:05:00,
2013-09-12 20:10:00,65.6,57.8,29.86,SSE,158,8.1,8.1,76,0.00,CLR,,0.00,WeatherDisplay:10.37,2013-09-13 03:10:00,
2013-09-12 20:15:00,65.1,57.7,29.87,SSW,195,11.5,11.5,77,0.00,CLR,,0.00,WeatherDisplay:10.37,2013-09-13 03:15:00,
2013-09-12 20:20:00,64.8,57.8,29.87,SSE,160,11.5,11.5,78,0.00,CLR,,0.00,WeatherDisplay:10.37,2013-09-13 03:20:00,
2013-09-12 20:25:00,64.3,57.6,29.87,SE,131,12.7,12.7,79,0.00,CLR,,0.00,WeatherDisplay:10.37,2013-09-13 03:25:00,
2013-09-12 20:30:00,63.9,57.6,29.87,SSE,160,10.4,10.4,80,0.00,CLR,,0.00,WeatherDisplay:10.37,2013-09-13 03:30:00,
2013-09-12 20:35:00,63.6,57.7,29.88,SSE,150,9.2,9.2,81,0.00,CLR,,0.00,WeatherDisplay:10.37,2013-09-13 03:35:00,
2013-09-12 20:40:00,63.3,57.4,29.88,SSE,165,8.1,8.1,81,0.00,CLR,,0.00,WeatherDisplay:10.37,2013-09-13 03:40:00,
2013-09-12 20:45:00,63.0,57.4,29.88,SSE,160,9.2,9.2,82,0.00,CLR,,0.00,WeatherDisplay:10.37,2013-09-13 03:45:00,
2013-09-12 20:50:00,62.7,57.5,29.88,South,176,8.1,8.1,83,0.00,CLR,,0.00,WeatherDisplay:10.37,2013-09-13 03:50:00,
2013-09-12 20:55:00,62.5,57.3,29.88,SSE,160,9.2,9.2,83,0.00,CLR,,0.00,WeatherDisplay:10.37,2013-09-13 03:55:00,
2013-09-12 21:00:00,62.3,57.4,29.89,SSE,150,6.9,6.9,84,0.00,CLR,,0.00,WeatherDisplay:10.37,2013-09-13 04:00:00,
2013-09-12 21:01:00,62.3,57.4,29.89,SE,129,8.1,8.1,84,0.00,CLR,,0.00,WeatherDisplay:10.37,2013-09-13 04:01:00,
2013-09-12 21:02:00,62.2,57.3,29.89,SE,134,8.1,8.1,84,0.00,CLR,,0.00,WeatherDisplay:10.37,2013-09-13 04:02:00,
2013-09-12 21:03:00,62.2,57.3,29.89,SSE,155,8.1,8.1,84,0.00,CLR,,0.00,WeatherDisplay:10.37,2013-09-13 04:03:00,
2013-09-12 21:06:00,62.1,57.2,29.89,SSE,167,3.5,3.5,84,0.00,CLR,,0.00,WeatherDisplay:10.37,2013-09-13 04:06:00,
2013-09-12 21:11:00,62.0,57.1,29.89,SSE,161,4.6,4.6,84,0.00,CLR,,0.00,WeatherDisplay:10.37,2013-09-13 04:11:00,
2013-09-12 21:17:00,61.8,57.2,29.89,SSE,165,9.2,9.2,85,0.00,CLR,,0.00,WeatherDisplay:10.37,2013-09-13 04:17:00,
2013-09-12 21:22:00,61.7,57.1,29.89,SSE,156,9.2,9.2,85,0.00,CLR,,0.00,WeatherDisplay:10.37,2013-09-13 04:22:00,
2013-09-12 21:27:00,61.5,56.9,29.89,SSE,158,4.0,4.0,85,0.00,CLR,,0.00,WeatherDisplay:10.37,2013-09-13 04:27:00,
2013-09-12 21:32:00,61.4,57.2,29.89,South,180,8.1,8.1,86,0.00,CLR,,0.00,WeatherDisplay:10.37,2013-09-13 04:32:00,
2013-09-12 21:37:00,61.2,57.0,29.90,SE,127,3.5,3.5,86,0.00,CLR,,0.00,WeatherDisplay:10.37,2013-09-13 04:37:00,
2013-09-12 21:42:00,61.1,56.9,29.90,SSW,204,6.9,6.9,86,0.00,CLR,,0.00,WeatherDisplay:10.37,2013-09-13 04:42:00,
2013-09-12 21:47:00,60.9,56.7,29.90,SSE,150,5.8,5.8,86,0.00,CLR,,0.00,WeatherDisplay:10.37,2013-09-13 04:47:00,
2013-09-12 21:52:00,60.8,56.9,29.90,SSE,152,5.8,5.8,87,0.00,CLR,,0.00,WeatherDisplay:10.37,2013-09-13 04:52:00,
2013-09-12 21:57:00,60.7,56.8,29.90,SSE,160,3.5,3.5,87,0.00,CLR,,0.00,WeatherDisplay:10.37,2013-09-13 04:57:00,
2013-09-12 22:02:00,60.6,56.7,29.90,SSE,151,4.0,4.0,87,0.00,CLR,,0.00,WeatherDisplay:10.37,2013-09-13 05:02:00,
2013-09-12 22:07:00,60.6,56.7,29.90,SW,229,4.6,4.6,87,0.00,CLR,,0.00,WeatherDisplay:10.37,2013-09-13 05:07:00,
2013-09-12 22:12:00,60.5,56.6,29.91,South,172,5.8,5.8,87,0.00,CLR,,0.00,WeatherDisplay:10.37,2013-09-13 05:12:00,
2013-09-12 22:17:00,60.4,56.5,29.90,SSE,150,4.6,4.6,87,0.00,CLR,,0.00,WeatherDisplay:10.37,2013-09-13 05:17:00,
2013-09-12 22:22:00,60.3,56.7,29.90,South,188,3.5,3.5,88,0.00,CLR,,0.00,WeatherDisplay:10.37,2013-09-13 05:22:00,
2013-09-12 22:27:00,60.1,56.5,29.90,South,170,3.5,3.5,88,0.00,CLR,,0.00,WeatherDisplay:10.37,2013-09-13 05:27:00,
2013-09-12 22:32:00,60.0,56.4,29.90,SSE,163,3.5,3.5,88,0.00,CLR,,0.00,WeatherDisplay:10.37,2013-09-13 05:32:00,
2013-09-12 22:37:00,60.0,56.4,29.90,ESE,108,4.6,4.6,88,0.00,CLR,,0.00,WeatherDisplay:10.37,2013-09-13 05:37:00,
2013-09-12 22:42:00,59.9,56.3,29.90,SSW,203,2.3,2.3,88,0.00,CLR,,0.00,WeatherDisplay:10.37,2013-09-13 05:42:00,
2013-09-12 22:47:00,59.8,56.6,29.91,SSE,162,2.3,2.3,89,0.00,CLR,,0.00,WeatherDisplay:10.37,2013-09-13 05:47:00,
2013-09-12 22:52:00,59.7,56.5,29.91,SSW,195,3.5,3.5,89,0.00,CLR,,0.00,WeatherDisplay:10.37,2013-09-13 05:52:00,
2013-09-12 22:57:00,59.7,56.5,29.91,South,174,2.3,2.3,89,0.00,CLR,,0.00,WeatherDisplay:10.37,2013-09-13 05:57:00,
2013-09-12 23:02:00,59.6,56.4,29.91,South,170,2.3,2.3,89,0.00,CLR,,0.00,WeatherDisplay:10.37,2013-09-13 06:02:00,
2013-09-12 23:07:00,59.5,56.3,29.91,SE,133,2.0,2.0,89,0.00,CLR,,0.00,WeatherDisplay:10.37,2013-09-13 06:07:00,
2013-09-12 23:12:00,59.4,56.2,29.91,SSE,153,4.0,4.0,89,0.00,CLR,,0.00,WeatherDisplay:10.37,2013-09-13 06:12:00,
2013-09-12 23:17:00,59.3,56.1,29.91,SSE,154,2.3,2.3,89,0.00,CLR,,0.00,WeatherDisplay:10.37,2013-09-13 06:17:00,
2013-09-12 23:22:00,59.2,56.3,29.91,SW,233,3.5,3.5,90,0.00,CLR,,0.00,WeatherDisplay:10.37,2013-09-13 06:22:00,
2013-09-12 23:27:00,59.1,55.9,29.91,WSW,256,1.2,1.2,89,0.00,CLR,,0.00,WeatherDisplay:10.37,2013-09-13 06:27:00,
2013-09-12 23:32:00,59.0,56.1,29.91,SW,236,1.2,1.2,90,0.00,CLR,,0.00,WeatherDisplay:10.37,2013-09-13 06:32:00,
2013-09-12 23:37:00,58.9,56.0,29.91,South,177,1.2,0.0,90,0.00,CLR,,0.00,WeatherDisplay:10.37,2013-09-13 06:37:00,
2013-09-12 23:42:00,58.9,56.0,29.90,SW,225,1.2,1.2,90,0.00,CLR,,0.00,WeatherDisplay:10.37,2013-09-13 06:42:00,
2013-09-12 23:47:00,58.7,55.8,29.90,SW,221,1.2,0.0,90,0.00,CLR,,0.00,WeatherDisplay:10.37,2013-09-13 06:47:00,
2013-09-12 23:52:00,58.7,55.8,29.90,South,187,1.2,0.0,90,0.00,CLR,,0.00,WeatherDisplay:10.37,2013-09-13 06:52:00,
2013-09-12 23:57:00,58.6,55.7,29.90,South,186,1.2,1.2,90,0.00,CLR,,0.00,WeatherDisplay:10.37,2013-09-13 06:57:00,